METEOR 2-8 DEB

Satellite information

Favourite Embed

Satellite Type and Status

DEBRISIN ORBIT

Key statistics

Satellite METEOR 2-8 DEB at a glance.

Uptime

15910

Days in orbit

Revolutions

≈ 14.2

Per day

Orbit

LEO

Low Earth Orbit

Inclination

82.5

Latest

Satellite identification and parameters

Extended collection of information and parameters for METEOR 2-8 DEB.

Object identification

Identified? True

Debris? True

Object name: METEOR 2-8 DEB

International designator: 1982-025AD

Object number (NORAD): 36343

Object ID (CCSDS): 36343

Country: COMMONWEALTH OF INDEPENDENT STATES (CIS)

Current information (Y/N): Y

RCS size: SMALL

Orbital parameters

Period: 101.136 minutes

Inclination: 82.5086 deg

SMA: 7190.598 km

Apoapsis: 820.293 km

Periapsis: 804.633 km

RAAN: 49.5985 deg

Eccentricy: 0.00108893

Argument of periapsis: 239.3724 deg

Mean anomaly: 120.6385 deg

Mean motion: 14.23820519 rev/day

Mean motion (dot): 0.00007064 rev/day2

B* drag term: 0.0030790047 1/REarth

Two-line elements (TLE)

Creation date: Oct. 14, 2025, 5:26 p.m.

Reference frame: TEME

Reference center: EARTH

Epoch: Oct. 14, 2025, 1:17 a.m. UTC

TLE line 0: 0 METEOR 2-8 DEB

TLE line 1: 1 36343U 82025AD 25287.05368531 .00007064 00000-0 30790-2 0 9999

TLE line 2: 2 36343 82.5086 49.5985 0010889 239.3724 120.6385 14.23820519622017

Live tracking on map

Real-time ground track for satellite METEOR 2-8 DEB.

In-orbit conjunctions

A list of the most updated potential collisions computed for object METEOR 2-8 DEB.

Target Orbit TCA Probability of collision Miss distance Type
BLITS DEB SSO 2025-08-23 20:40:49 0.0001140376 61.0 (m) DEBRIS
TECHSAT 1B SSO 2025-07-27 21:32:45 0.0001060162 301.0 (m) PAYLOAD
DELTA 1 DEB SSO 2025-03-13 23:16:00 0.0001128926 208.0 (m) DEBRIS
CZ-6A DEB SSO 2024-08-27 01:41:23 0.0001505936 223.0 (m) DEBRIS
FENGYUN 1C DEB SSO 2024-07-25 08:08:31 0.0001062714 147.0 (m) DEBRIS

Associated space launch

Second generation soviet meteorological satellite

METEOR 2-8 DEB was lifted into orbit during the mission ‘Tsiklon-3 | Meteor-2 8’, on board a Tsiklon-3 space rocket.

The launch took place on March 25, 1982, 9:50 a.m. from 32/1.

For more information about the launch, click the button.

Launch to space Tsiklon-3 | Meteor-2 8
Tsiklon-3 | Meteor-2 8

Agency: N/A

Status: Launch Successful

Launch date: March 25, 1982, 9:50 a.m. UTC

Rocket: Tsiklon-3

Launch pad: 32/1

Location: Plesetsk Cosmodrome, Russian Federation

...

Latest news about this satellite

There are no fresh news available about this satellite. Check back as we update our databases every day.


Newsletter sign-up

Weekly statistics, charts and insights to help you stay on top of the space industry.